"Period start","avg(HW err(1)/warn(2) (#))","avg(Visibility (m))","avg(Weather code (#))","avg(Precip intensity (mm/h))","min(HW err(1)/warn(2) (#))","max(HW err(1)/warn(2) (#))","std(HW err(1)/warn(2) (#))","med(HW err(1)/warn(2) (#))","min(Visibility (m))","max(Visibility (m))","std(Visibility (m))","med(Visibility (m))","min(Weather code (#))","max(Weather code (#))","std(Weather code (#))","med(Weather code (#))","min(Precip intensity (mm/h))","max(Precip intensity (mm/h))","std(Precip intensity (mm/h))","med(Precip intensity (mm/h))"
2016-07-26 00:00:00,0,47734,0,0.00,0,0,0,0,43187,50000,2465,48590,0,0,0,0,0.00,0.00,0.00,0.00
2016-07-26 00:10:00,0,49557,0,0.00,0,0,0,0,45570,50000,1329,50000,0,0,0,0,0.00,0.00,0.00,0.00
2016-07-26 00:20:00,0,48325,0,0.00,0,0,0,0,41269,50000,2783,49818,0,0,0,0,0.00,0.00,0.00,0.00
2016-07-26 00:30:00,0,49315,0,0.00,0,0,0,0,47194,50000,931,50000,0,0,0,0,0.00,0.00,0.00,0.00
2016-07-26 00:40:00,0,49687,0,0.00,0,0,0,0,48018,50000,653,50000,0,0,0,0,0.00,0.00,0.00,0.00
2016-07-26 00:50:00,0,47375,0,0.00,0,0,0,0,43002,50000,2406,48117,0,0,0,0,0.00,0.00,0.00,0.00
2016-07-26 01:00:00,0,49975,0,0.00,0,0,0,0,49746,50000,76,50000,0,0,0,0,0.00,0.00,0.00,0.00
2016-07-26 01:10:00,0,48944,0,0.00,0,0,0,0,42709,50000,2296,50000,0,0,0,0,0.00,0.00,0.00,0.00
2016-07-26 01:20:00,0,49677,0,0.00,0,0,0,0,46860,50000,939,50000,0,0,0,0,0.00,0.00,0.00,0.00
2016-07-26 01:30:00,0,46969,0,0.00,0,0,0,0,41330,50000,3098,47663,0,0,0,0,0.00,0.00,0.00,0.00
2016-07-26 01:40:00,0,48004,0,0.00,0,0,0,0,43262,50000,2584,50000,0,0,0,0,0.00,0.00,0.00,0.00
2016-07-26 01:50:00,0,49698,0,0.00,0,0,0,0,47435,50000,767,50000,0,0,0,0,0.00,0.00,0.00,0.00
2016-07-26 02:00:00,0,49716,0,0.00,0,0,0,0,48085,50000,610,50000,0,0,0,0,0.00,0.00,0.00,0.00
2016-07-26 02:10:00,0,46020,0,0.00,0,0,0,0,41115,49961,2934,47148,0,0,0,0,0.00,0.00,0.00,0.00
2016-07-26 02:20:00,0,46945,0,0.00,0,0,0,0,35460,50000,5003,50000,0,0,0,0,0.00,0.00,0.00,0.00
2016-07-26 02:30:00,0,46574,0,0.00,0,0,0,0,33942,50000,5878,50000,0,0,0,0,0.00,0.00,0.00,0.00
2016-07-26 02:40:00,0,48837,0,0.00,0,0,0,0,44262,50000,1906,50000,0,0,0,0,0.00,0.00,0.00,0.00
2016-07-26 02:50:00,0,47922,0,0.00,0,0,0,0,39829,50000,3524,49838,0,0,0,0,0.00,0.00,0.00,0.00
2016-07-26 03:00:00,0,41602,0,0.00,0,0,0,0,26008,48889,6014,41748,0,0,0,0,0.00,0.00,0.00,0.00
2016-07-26 03:10:00,0,48840,0,0.00,0,0,0,0,46812,50000,1323,49646,0,0,0,0,0.00,0.00,0.00,0.00
2016-07-26 03:20:00,0,47074,0,0.00,0,0,0,0,42989,50000,1999,46995,0,0,0,0,0.00,0.00,0.00,0.00
2016-07-26 03:30:00,0,46034,0,0.00,0,0,0,0,35884,50000,5013,48183,0,0,0,0,0.00,0.00,0.00,0.00
2016-07-26 03:40:00,0,48001,0,0.00,0,0,0,0,43265,50000,2272,48852,0,0,0,0,0.00,0.00,0.00,0.00
2016-07-26 03:50:00,0,48851,0,0.00,0,0,0,0,46241,50000,1500,50000,0,0,0,0,0.00,0.00,0.00,0.00
2016-07-26 04:00:00,0,41378,0,0.00,0,0,0,0,23922,50000,8929,42759,0,0,0,0,0.00,0.00,0.00,0.00
2016-07-26 04:10:00,0,46141,0,0.00,0,0,0,0,38431,50000,4048,47515,0,0,0,0,0.00,0.00,0.00,0.00
2016-07-26 04:20:00,0,46732,0,0.00,0,0,0,0,36156,50000,4360,49006,0,0,0,0,0.00,0.00,0.00,0.00
2016-07-26 04:30:00,0,48071,0,0.00,0,0,0,0,39521,50000,3180,50000,0,0,0,0,0.00,0.00,0.00,0.00
2016-07-26 04:40:00,0,49268,0,0.00,0,0,0,0,43077,50000,2067,50000,0,0,0,0,0.00,0.00,0.00,0.00
2016-07-26 04:50:00,0,48402,0,0.00,0,0,0,0,44708,50000,2007,49546,0,0,0,0,0.00,0.00,0.00,0.00
2016-07-26 05:00:00,0,46325,0,0.00,0,0,0,0,38227,50000,3993,48222,0,0,0,0,0.00,0.00,0.00,0.00
2016-07-26 05:10:00,0,48069,0,0.00,0,0,0,0,37954,50000,3860,50000,0,0,0,0,0.00,0.00,0.00,0.00
2016-07-26 05:20:00,0,49658,0,0.00,0,0,0,0,46860,50000,934,50000,0,0,0,0,0.00,0.00,0.00,0.00
2016-07-26 05:30:00,0,49980,0,0.00,0,0,0,0,49801,50000,60,50000,0,0,0,0,0.00,0.00,0.00,0.00
2016-07-26 05:40:00,0,49364,0,0.00,0,0,0,0,47628,50000,872,50000,0,0,0,0,0.00,0.00,0.00,0.00
2016-07-26 05:50:00,0,47258,0,0.00,0,0,0,0,36775,50000,4131,50000,0,0,0,0,0.00,0.00,0.00,0.00
2016-07-26 06:00:00,0,49377,0,0.00,0,0,0,0,45230,50000,1420,50000,0,0,0,0,0.00,0.00,0.00,0.00
2016-07-26 06:10:00,0,48682,0,0.00,0,0,0,0,43672,50000,2234,49910,0,0,0,0,0.00,0.00,0.00,0.00
2016-07-26 06:20:00,0,50000,0,0.00,0,0,0,0,50000,50000,0,50000,0,0,0,0,0.00,0.00,0.00,0.00
2016-07-26 06:30:00,0,50000,0,0.00,0,0,0,0,50000,50000,0,50000,0,0,0,0,0.00,0.00,0.00,0.00
2016-07-26 06:40:00,0,50000,0,0.00,0,0,0,0,50000,50000,0,50000,0,0,0,0,0.00,0.00,0.00,0.00
2016-07-26 06:50:00,0,46355,0,0.00,0,0,0,0,29569,50000,6617,50000,0,0,0,0,0.00,0.00,0.00,0.00
2016-07-26 07:00:00,0,49744,0,0.00,0,0,0,0,48018,50000,589,50000,0,0,0,0,0.00,0.00,0.00,0.00
2016-07-26 07:10:00,0,49585,0,0.00,0,0,0,0,47288,50000,877,50000,0,0,0,0,0.00,0.00,0.00,0.00
2016-07-26 07:20:00,0,48613,0,0.00,0,0,0,0,36156,50000,4152,50000,0,0,0,0,0.00,0.00,0.00,0.00
2016-07-26 07:30:00,0,49303,0,0.00,0,0,0,0,45542,50000,1460,50000,0,0,0,0,0.00,0.00,0.00,0.00
2016-07-26 07:40:00,0,50000,0,0.00,0,0,0,0,50000,50000,0,50000,0,0,0,0,0.00,0.00,0.00,0.00
2016-07-26 07:50:00,0,49656,0,0.00,0,0,0,0,47327,50000,809,50000,0,0,0,0,0.00,0.00,0.00,0.00
2016-07-26 08:00:00,0,49772,0,0.00,0,0,0,0,48176,50000,549,50000,0,0,0,0,0.00,0.00,0.00,0.00
2016-07-26 08:10:00,0,50000,0,0.00,0,0,0,0,50000,50000,0,50000,0,0,0,0,0.00,0.00,0.00,0.00
2016-07-26 08:20:00,0,49873,0,0.00,0,0,0,0,48731,50000,381,50000,0,0,0,0,0.00,0.00,0.00,0.00
2016-07-26 08:30:00,0,50000,0,0.00,0,0,0,0,50000,50000,0,50000,0,0,0,0,0.00,0.00,0.00,0.00
2016-07-26 08:40:00,0,50000,0,0.00,0,0,0,0,50000,50000,0,50000,0,0,0,0,0.00,0.00,0.00,0.00
2016-07-26 08:50:00,0,50000,0,0.00,0,0,0,0,50000,50000,0,50000,0,0,0,0,0.00,0.00,0.00,0.00
2016-07-26 09:00:00,0,50000,0,0.00,0,0,0,0,50000,50000,0,50000,0,0,0,0,0.00,0.00,0.00,0.00
2016-07-26 09:10:00,0,50000,0,0.00,0,0,0,0,50000,50000,0,50000,0,0,0,0,0.00,0.00,0.00,0.00
2016-07-26 09:20:00,0,49764,0,0.00,0,0,0,0,47636,50000,709,50000,0,0,0,0,0.00,0.00,0.00,0.00
2016-07-26 09:30:00,0,49706,0,0.00,0,0,0,0,47061,50000,882,50000,0,0,0,0,0.00,0.00,0.00,0.00
2016-07-26 09:40:00,0,50000,0,0.00,0,0,0,0,50000,50000,0,50000,0,0,0,0,0.00,0.00,0.00,0.00
2016-07-26 09:50:00,0,50000,0,0.00,0,0,0,0,50000,50000,0,50000,0,0,0,0,0.00,0.00,0.00,0.00
2016-07-26 10:00:00,0,50000,0,0.00,0,0,0,0,50000,50000,0,50000,0,0,0,0,0.00,0.00,0.00,0.00
2016-07-26 10:10:00,0,50000,0,0.00,0,0,0,0,50000,50000,0,50000,0,0,0,0,0.00,0.00,0.00,0.00
2016-07-26 10:20:00,0,50000,0,0.00,0,0,0,0,50000,50000,0,50000,0,0,0,0,0.00,0.00,0.00,0.00
2016-07-26 10:30:00,0,50000,0,0.00,0,0,0,0,50000,50000,0,50000,0,0,0,0,0.00,0.00,0.00,0.00
2016-07-26 10:40:00,0,49980,0,0.00,0,0,0,0,49797,50000,61,50000,0,0,0,0,0.00,0.00,0.00,0.00
2016-07-26 10:50:00,0,50000,0,0.00,0,0,0,0,50000,50000,0,50000,0,0,0,0,0.00,0.00,0.00,0.00
2016-07-26 11:00:00,0,50000,0,0.00,0,0,0,0,50000,50000,0,50000,0,0,0,0,0.00,0.00,0.00,0.00
2016-07-26 11:10:00,0,49289,0,0.00,0,0,0,0,43540,50000,1926,50000,0,0,0,0,0.00,0.00,0.00,0.00
2016-07-26 11:20:00,0,50000,0,0.00,0,0,0,0,50000,50000,0,50000,0,0,0,0,0.00,0.00,0.00,0.00
2016-07-26 11:30:00,0,50000,0,0.00,0,0,0,0,50000,50000,0,50000,0,0,0,0,0.00,0.00,0.00,0.00
2016-07-26 11:40:00,0,49995,0,0.00,0,0,0,0,49947,50000,16,50000,0,0,0,0,0.00,0.00,0.00,0.00
2016-07-26 11:50:00,0,49794,0,0.00,0,0,0,0,47938,50000,619,50000,0,0,0,0,0.00,0.00,0.00,0.00
2016-07-26 12:00:00,0,49532,0,0.00,0,0,0,0,46059,50000,1178,50000,0,0,0,0,0.00,0.00,0.00,0.00
2016-07-26 12:10:00,0,49839,0,0.00,0,0,0,0,48393,50000,482,50000,0,0,0,0,0.00,0.00,0.00,0.00
2016-07-26 12:20:00,0,50000,0,0.00,0,0,0,0,50000,50000,0,50000,0,0,0,0,0.00,0.00,0.00,0.00
2016-07-26 12:30:00,0,49950,0,0.00,0,0,0,0,49637,50000,112,50000,0,0,0,0,0.00,0.00,0.00,0.00
2016-07-26 12:40:00,0,50000,0,0.00,0,0,0,0,50000,50000,0,50000,0,0,0,0,0.00,0.00,0.00,0.00
2016-07-26 12:50:00,0,50000,0,0.00,0,0,0,0,50000,50000,0,50000,0,0,0,0,0.00,0.00,0.00,0.00
2016-07-26 13:00:00,0,50000,0,0.00,0,0,0,0,50000,50000,0,50000,0,0,0,0,0.00,0.00,0.00,0.00
2016-07-26 13:10:00,0,50000,0,0.00,0,0,0,0,50000,50000,0,50000,0,0,0,0,0.00,0.00,0.00,0.00
2016-07-26 13:20:00,0,49999,0,0.00,0,0,0,0,49990,50000,3,50000,0,0,0,0,0.00,0.00,0.00,0.00
2016-07-26 13:30:00,0,50000,0,0.00,0,0,0,0,50000,50000,0,50000,0,0,0,0,0.00,0.00,0.00,0.00
2016-07-26 13:40:00,0,42956,0,0.00,0,0,0,0,27310,50000,8187,46661,0,0,0,0,0.00,0.00,0.00,0.00
2016-07-26 13:50:00,0,49852,0,0.00,0,0,0,0,48519,50000,444,50000,0,0,0,0,0.00,0.00,0.00,0.00
2016-07-26 14:00:00,0,49301,0,0.00,0,0,0,0,46232,50000,1292,50000,0,0,0,0,0.00,0.00,0.00,0.00
2016-07-26 14:10:00,0,49367,0,0.00,0,0,0,0,45661,50000,1371,50000,0,0,0,0,0.00,0.00,0.00,0.00
2016-07-26 14:20:00,0,49924,0,0.00,0,0,0,0,49258,50000,222,50000,0,0,0,0,0.00,0.00,0.00,0.00
2016-07-26 14:30:00,0,31876,0,0.00,0,0,0,0,12585,50000,12698,33210,0,0,0,0,0.00,0.00,0.00,0.00
2016-07-26 14:40:00,0,15300,0,0.00,0,0,0,0,4625,29743,8056,12902,0,0,0,0,0.00,0.00,0.00,0.00
2016-07-26 14:50:00,0,4241,56,3.62,0,0,0,0,3332,5462,719,4012,52,61,4,56,0.15,7.20,1.97,3.47
2016-07-26 15:00:00,0,5642,61,1.17,0,0,0,0,4303,7035,813,5709,61,61,0,61,0.40,3.60,0.92,0.77
2016-07-26 15:10:00,0,3447,55,5.67,0,0,0,0,3059,4425,442,3230,53,61,3,53,3.50,9.85,1.95,5.03
2016-07-26 15:20:00,0,3512,53,4.90,0,0,0,0,2701,4754,539,3529,52,53,0,53,3.40,7.65,1.59,4.12
2016-07-26 15:30:00,0,4680,52,3.52,0,0,0,0,2664,7779,1678,4216,52,53,0,52,1.15,6.90,2.07,3.33
2016-07-26 15:40:00,0,8796,51,0.24,0,0,0,0,7427,10612,979,8924,51,52,0,51,0.10,1.00,0.26,0.15
2016-07-26 15:50:00,0,8999,52,0.09,0,0,0,0,7275,10817,985,8968,51,61,3,51,0.00,0.20,0.06,0.08
2016-07-26 16:00:00,0,11486,19,0.02,0,0,0,0,8118,14373,2091,11252,10,61,19,10,0.00,0.15,0.05,0.00
2016-07-26 16:10:00,0,11093,1,0.00,0,0,0,0,6836,16295,3132,10228,0,10,3,0,0.00,0.00,0.00,0.00
2016-07-26 16:20:00,0,6137,8,0.00,0,0,0,0,5371,7411,682,5870,0,10,4,10,0.00,0.00,0.00,0.00
2016-07-26 16:30:00,0,6897,29,0.36,0,0,0,0,5219,9490,1138,6894,10,61,23,10,0.00,1.30,0.51,0.00
2016-07-26 16:40:00,1,8378,51,0.29,0,2,1,2,5422,11844,1828,7885,51,52,0,51,0.10,0.60,0.15,0.30
2016-07-26 16:50:00,0,11248,30,0.04,0,2,1,0,8033,15319,2180,10910,10,51,20,30,0.00,0.20,0.07,0.00
2016-07-26 17:00:00,0,11196,2,0.00,0,0,0,0,7844,17873,3194,10050,0,10,4,0,0.00,0.00,0.00,0.00
2016-07-26 17:10:00,0,5713,30,0.45,0,0,0,0,3150,8232,1349,5412,0,61,26,31,0.00,1.45,0.54,0.12
2016-07-26 17:20:00,0,36721,17,0.02,0,0,0,0,6886,50000,16291,47158,0,51,17,10,0.00,0.15,0.05,0.00
2016-07-26 17:30:00,0,35417,0,0.00,0,0,0,0,19799,50000,12344,30921,0,0,0,0,0.00,0.00,0.00,0.00
2016-07-26 17:40:00,0,49142,0,0.00,0,0,0,0,42428,50000,2258,50000,0,0,0,0,0.00,0.00,0.00,0.00
2016-07-26 17:50:00,0,50000,0,0.00,0,0,0,0,50000,50000,0,50000,0,0,0,0,0.00,0.00,0.00,0.00
2016-07-26 18:00:00,0,49985,0,0.00,0,0,0,0,49851,50000,45,50000,0,0,0,0,0.00,0.00,0.00,0.00
2016-07-26 18:10:00,0,50000,0,0.00,0,0,0,0,50000,50000,0,50000,0,0,0,0,0.00,0.00,0.00,0.00
2016-07-26 18:20:00,0,49989,0,0.00,0,0,0,0,49893,50000,32,50000,0,0,0,0,0.00,0.00,0.00,0.00
2016-07-26 18:30:00,0,49901,0,0.00,0,0,0,0,49011,50000,297,50000,0,0,0,0,0.00,0.00,0.00,0.00
2016-07-26 18:40:00,0,50000,0,0.00,0,0,0,0,50000,50000,0,50000,0,0,0,0,0.00,0.00,0.00,0.00
2016-07-26 18:50:00,0,50000,0,0.00,0,0,0,0,50000,50000,0,50000,0,0,0,0,0.00,0.00,0.00,0.00
2016-07-26 19:00:00,0,49735,0,0.00,0,0,0,0,47876,50000,639,50000,0,0,0,0,0.00,0.00,0.00,0.00
2016-07-26 19:10:00,0,50000,0,0.00,0,0,0,0,50000,50000,0,50000,0,0,0,0,0.00,0.00,0.00,0.00
2016-07-26 19:20:00,0,49790,0,0.00,0,0,0,0,48265,50000,520,50000,0,0,0,0,0.00,0.00,0.00,0.00
2016-07-26 19:30:00,0,49720,0,0.00,0,0,0,0,47777,50000,670,50000,0,0,0,0,0.00,0.00,0.00,0.00
2016-07-26 19:40:00,0,49876,0,0.00,0,0,0,0,48756,50000,373,50000,0,0,0,0,0.00,0.00,0.00,0.00
2016-07-26 19:50:00,0,49988,0,0.00,0,0,0,0,49882,50000,35,50000,0,0,0,0,0.00,0.00,0.00,0.00
2016-07-26 20:00:00,0,50000,0,0.00,0,0,0,0,50000,50000,0,50000,0,0,0,0,0.00,0.00,0.00,0.00
2016-07-26 20:10:00,0,50000,0,0.00,0,0,0,0,50000,50000,0,50000,0,0,0,0,0.00,0.00,0.00,0.00
2016-07-26 20:20:00,0,50000,0,0.00,0,0,0,0,50000,50000,0,50000,0,0,0,0,0.00,0.00,0.00,0.00
2016-07-26 20:30:00,0,49488,0,0.00,0,0,0,0,45212,50000,1429,50000,0,0,0,0,0.00,0.00,0.00,0.00
2016-07-26 20:40:00,0,49742,0,0.00,0,0,0,0,47927,50000,624,50000,0,0,0,0,0.00,0.00,0.00,0.00
2016-07-26 20:50:00,0,49886,0,0.00,0,0,0,0,48862,50000,341,50000,0,0,0,0,0.00,0.00,0.00,0.00
2016-07-26 21:00:00,0,50000,0,0.00,0,0,0,0,50000,50000,0,50000,0,0,0,0,0.00,0.00,0.00,0.00
2016-07-26 21:10:00,0,49351,0,0.00,0,0,0,0,46533,50000,1251,50000,0,0,0,0,0.00,0.00,0.00,0.00
2016-07-26 21:20:00,0,50000,0,0.00,0,0,0,0,50000,50000,0,50000,0,0,0,0,0.00,0.00,0.00,0.00
2016-07-26 21:30:00,0,49633,0,0.00,0,0,0,0,46327,50000,1102,50000,0,0,0,0,0.00,0.00,0.00,0.00
2016-07-26 21:40:00,0,49867,0,0.00,0,0,0,0,48670,50000,399,50000,0,0,0,0,0.00,0.00,0.00,0.00
2016-07-26 21:50:00,0,49937,0,0.00,0,0,0,0,49371,50000,189,50000,0,0,0,0,0.00,0.00,0.00,0.00
2016-07-26 22:00:00,0,49843,0,0.00,0,0,0,0,48844,50000,355,50000,0,0,0,0,0.00,0.00,0.00,0.00
2016-07-26 22:10:00,0,49680,0,0.00,0,0,0,0,48262,50000,568,50000,0,0,0,0,0.00,0.00,0.00,0.00
2016-07-26 22:20:00,0,49702,0,0.00,0,0,0,0,47933,50000,650,50000,0,0,0,0,0.00,0.00,0.00,0.00
2016-07-26 22:30:00,0,50000,0,0.00,0,0,0,0,50000,50000,0,50000,0,0,0,0,0.00,0.00,0.00,0.00
2016-07-26 22:40:00,0,49844,0,0.00,0,0,0,0,48438,50000,469,50000,0,0,0,0,0.00,0.00,0.00,0.00
2016-07-26 22:50:00,0,50000,0,0.00,0,0,0,0,50000,50000,0,50000,0,0,0,0,0.00,0.00,0.00,0.00
2016-07-26 23:00:00,0,49617,0,0.00,0,0,0,0,47854,50000,702,50000,0,0,0,0,0.00,0.00,0.00,0.00
2016-07-26 23:10:00,0,49954,0,0.00,0,0,0,0,49537,50000,139,50000,0,0,0,0,0.00,0.00,0.00,0.00
2016-07-26 23:20:00,0,49676,0,0.00,0,0,0,0,48622,50000,523,50000,0,0,0,0,0.00,0.00,0.00,0.00
2016-07-26 23:30:00,0,49833,0,0.00,0,0,0,0,48983,50000,344,50000,0,0,0,0,0.00,0.00,0.00,0.00
2016-07-26 23:40:00,0,49996,0,0.00,0,0,0,0,49958,50000,13,50000,0,0,0,0,0.00,0.00,0.00,0.00
2016-07-26 23:50:00,0,49519,0,0.00,0,0,0,0,46968,50000,1000,50000,0,0,0,0,0.00,0.00,0.00,0.00
